Location: ????????
(55.0559°N, 39.1270°E)
Time: 01:32:34
(UTC+00:00)

SL-16 R/B - Pass Details

Date: 15 November 2025
Orbit: 841 x 844 km, 71.0° (Epoch: 12 December)

Event Time Altitude Azimuth Distance (km) Brightness Sun altitude
Exits shadow 02:26:39 17° 333° (NNW) 2,036 3.9 -21.0°
Maximum altitude 02:27:42 18° 347° (NNW) 1,994 4.0 -20.8°
Drops below altitude 10° 02:31:27 10° 28° (NNE) 2,478 4.9 -20.3°
Sets 02:34:47 0° 48° (NE) 3,415 6.0 -19.8°
